• In Netherlands
  • List of Countries
  • For 7 days
  • Water Temperature
  • Satellite Maps
  • Weather Map
  • Weather Widgets
  • user-avatar
    Login

    Hourly Weather Lozenec

    Today, 21 February, Tuesday

    Time Temperature Precipitation Wind Pressure Humidity
    00:00 +3°C° 0 mm 2 mps 761 mmHg 87%
    01:00 +3°C° 0 mm 2 mps 761 mmHg 87%
    02:00 +2°C° 0 mm 3 mps 761 mmHg 86%
    03:00 +1°C° 0 mm 3 mps 761 mmHg 86%
    04:00 +1°C° 0 mm 3 mps 761 mmHg 85%
    05:00 +1°C° 0 mm 3 mps 760 mmHg 85%
    06:00 +1°C° 0 mm 3 mps 760 mmHg 82%
    07:00 +2°C° 0 mm 3 mps 760 mmHg 79%
    08:00 +3°C° 0 mm 3 mps 760 mmHg 73%
    09:00 +4°C° 0 mm 4 mps 760 mmHg 67%
    10:00 +6°C° 0 mm 4 mps 760 mmHg 61%
    11:00 +7°C° 0 mm 4 mps 760 mmHg 56%
    12:00 +8°C° 0 mm 4 mps 759 mmHg 56%
    13:00 +10°C° 0 mm 4 mps 759 mmHg 56%
    14:00 +10°C° 0 mm 4 mps 758 mmHg 56%
    15:00 +10°C° 0 mm 4 mps 758 mmHg 62%
    16:00 +9°C° 0 mm 3 mps 758 mmHg 68%
    17:00 +8°C° 0 mm 3 mps 758 mmHg 73%
    18:00 +7°C° 0 mm 3 mps 758 mmHg 76%
    19:00 +5°C° 0 mm 3 mps 758 mmHg 79%
    20:00 +4°C° 0 mm 3 mps 758 mmHg 82%
    21:00 +4°C° 0 mm 4 mps 758 mmHg 82%
    22:00 +4°C° 0 mm 4 mps 758 mmHg 82%
    23:00 +4°C° 0 mm 4 mps 758 mmHg 82%

    Tomorrow, 22 February, Wednesday

    Time Temperature Precipitation Wind Pressure Humidity
    00:00 +4°C° 0.1 mm 4 mps 758 mmHg 82%
    01:00 +4°C° 0.1 mm 4 mps 758 mmHg 82%
    02:00 +3°C° 0.1 mm 5 mps 757 mmHg 82%
    03:00 +3°C° 0.3 mm 5 mps 757 mmHg 81%
    04:00 +3°C° 0.3 mm 5 mps 757 mmHg 81%
    05:00 +3°C° 0.3 mm 5 mps 757 mmHg 80%
    06:00 +4°C° 0 mm 4 mps 758 mmHg 79%
    07:00 +4°C° 0 mm 4 mps 758 mmHg 77%
    08:00 +4°C° 0 mm 4 mps 759 mmHg 76%
    09:00 +6°C° 0 mm 4 mps 759 mmHg 72%
    10:00 +8°C° 0 mm 5 mps 759 mmHg 68%
    11:00 +10°C° 0 mm 5 mps 760 mmHg 64%
    12:00 +12°C° 0 mm 4 mps 760 mmHg 63%
    13:00 +12°C° 0 mm 4 mps 760 mmHg 62%
    14:00 +13°C° 0 mm 4 mps 760 mmHg 61%
    15:00 +12°C° 0 mm 3 mps 760 mmHg 65%
    16:00 +12°C° 0 mm 2 mps 760 mmHg 69%
    17:00 +12°C° 0 mm 1 mps 760 mmHg 74%
    18:00 +10°C° 0 mm 2 mps 760 mmHg 76%
    19:00 +9°C° 0 mm 2 mps 760 mmHg 77%
    20:00 +8°C° 0 mm 3 mps 760 mmHg 79%
    21:00 +7°C° 0 mm 3 mps 760 mmHg 80%
    22:00 +6°C° 0 mm 4 mps 760 mmHg 80%
    23:00 +6°C° 0 mm 4 mps 760 mmHg 81%

    Day after tomorrow, 23 February, Thursday

    Time Temperature Precipitation Wind Pressure Humidity
    00:00 +6°C° 0 mm 4 mps 760 mmHg 80%
    01:00 +6°C° 0 mm 4 mps 760 mmHg 79%
    02:00 +6°C° 0 mm 5 mps 760 mmHg 78%
    03:00 +6°C° 0 mm 5 mps 760 mmHg 79%
    04:00 +6°C° 0 mm 5 mps 759 mmHg 79%
    05:00 +6°C° 0 mm 5 mps 759 mmHg 80%
    06:00 +6°C° 0 mm 5 mps 759 mmHg 81%
    07:00 +6°C° 0 mm 5 mps 759 mmHg 81%
    08:00 +7°C° 0 mm 6 mps 760 mmHg 82%
    09:00 +8°C° 0 mm 6 mps 760 mmHg 78%
    10:00 +10°C° 0 mm 6 mps 760 mmHg 74%
    11:00 +13°C° 0 mm 6 mps 760 mmHg 70%
    12:00 +14°C° 0 mm 6 mps 760 mmHg 68%
    13:00 +15°C° 0 mm 6 mps 759 mmHg 66%
    14:00 +16°C° 0 mm 6 mps 759 mmHg 64%
    15:00 +15°C° 0 mm 5 mps 759 mmHg 68%
    16:00 +14°C° 0 mm 5 mps 759 mmHg 72%
    17:00 +14°C° 0 mm 5 mps 759 mmHg 77%
    18:00 +13°C° 0 mm 5 mps 759 mmHg 79%
    19:00 +11°C° 0 mm 6 mps 759 mmHg 82%
    20:00 +10°C° 0 mm 6 mps 759 mmHg 85%
    21:00 +10°C° 0 mm 6 mps 759 mmHg 87%
    22:00 +9°C° 0 mm 7 mps 759 mmHg 88%
    23:00 +9°C° 0 mm 7 mps 759 mmHg 89%

    24 February, Friday

    Time Temperature Precipitation Wind Pressure Humidity
    00:00 +9°C° 0 mm 7 mps 759 mmHg 90%
    01:00 +9°C° 0 mm 7 mps 759 mmHg 90%
    02:00 +9°C° 0 mm 7 mps 759 mmHg 91%
    03:00 +9°C° 0 mm 7 mps 758 mmHg 91%
    04:00 +9°C° 0 mm 8 mps 758 mmHg 90%
    05:00 +9°C° 0 mm 8 mps 757 mmHg 90%
    06:00 +9°C° 0 mm 8 mps 758 mmHg 89%
    07:00 +10°C° 0 mm 8 mps 758 mmHg 89%
    08:00 +10°C° 0 mm 8 mps 758 mmHg 88%
    09:00 +11°C° 0 mm 8 mps 758 mmHg 84%
    10:00 +12°C° 0 mm 9 mps 758 mmHg 80%
    11:00 +13°C° 0 mm 9 mps 758 mmHg 77%
    12:00 +15°C° 0 mm 9 mps 758 mmHg 74%
    13:00 +15°C° 0 mm 8 mps 757 mmHg 72%
    14:00 +16°C° 0 mm 8 mps 757 mmHg 69%
    15:00 +15°C° 0 mm 8 mps 757 mmHg 71%
    16:00 +15°C° 0 mm 8 mps 757 mmHg 73%
    17:00 +14°C° 0 mm 7 mps 756 mmHg 75%
    18:00 +12°C° 0 mm 8 mps 757 mmHg 78%
    19:00 +11°C° 0 mm 8 mps 757 mmHg 81%
    20:00 +11°C° 0 mm 8 mps 757 mmHg 85%
    21:00 +11°C° 0 mm 8 mps 757 mmHg 85%
    22:00 +11°C° 0 mm 9 mps 757 mmHg 85%
    23:00 +11°C° 0 mm 9 mps 757 mmHg 86%

    25 February, Saturday

    Time Temperature Precipitation Wind Pressure Humidity
    00:00 +11°C° 0 mm 9 mps 756 mmHg 86%
    01:00 +11°C° 0 mm 9 mps 756 mmHg 86%
    02:00 +11°C° 0 mm 10 mps 756 mmHg 86%
    03:00 +11°C° 0 mm 10 mps 755 mmHg 86%
    04:00 +11°C° 0 mm 10 mps 755 mmHg 86%
    05:00 +11°C° 0 mm 11 mps 754 mmHg 86%
    06:00 +11°C° 0.4 mm 11 mps 754 mmHg 85%
    07:00 +11°C° 0.4 mm 11 mps 755 mmHg 85%
    08:00 +12°C° 0.4 mm 11 mps 755 mmHg 85%
    09:00 +12°C° 0.2 mm 11 mps 755 mmHg 82%
    10:00 +12°C° 0.2 mm 10 mps 756 mmHg 80%
    11:00 +12°C° 0.2 mm 10 mps 757 mmHg 78%
    12:00 +10°C° 0.7 mm 9 mps 758 mmHg 77%
    13:00 +8°C° 0.7 mm 9 mps 758 mmHg 76%
    14:00 +7°C° 0.7 mm 8 mps 759 mmHg 75%
    15:00 +8°C° 0.3 mm 7 mps 760 mmHg 74%
    16:00 +8°C° 0.3 mm 5 mps 761 mmHg 74%
    17:00 +8°C° 0.3 mm 4 mps 762 mmHg 73%
    18:00 +8°C° 0 mm 3 mps 763 mmHg 75%
    19:00 +7°C° 0 mm 2 mps 764 mmHg 77%
    20:00 +6°C° 0 mm 2 mps 765 mmHg 80%
    21:00 +5°C° 0 mm 2 mps 765 mmHg 80%
    22:00 +5°C° 0 mm 2 mps 766 mmHg 81%
    23:00 +4°C° 0 mm 2 mps 766 mmHg 82%

    26 February, Sunday

    Time Temperature Precipitation Wind Pressure Humidity
    00:00 +4°C° 0 mm 2 mps 766 mmHg 82%
    01:00 +4°C° 0 mm 2 mps 766 mmHg 82%
    02:00 +3°C° 0 mm 2 mps 766 mmHg 82%
    03:00 +3°C° 0 mm 2 mps 766 mmHg 82%
    04:00 +3°C° 0 mm 2 mps 765 mmHg 83%
    05:00 +3°C° 0 mm 2 mps 765 mmHg 84%
    06:00 +4°C° 0 mm 2 mps 765 mmHg 83%
    07:00 +4°C° 0 mm 2 mps 765 mmHg 83%
    08:00 +5°C° 0 mm 2 mps 765 mmHg 82%
    09:00 +5°C° 0 mm 3 mps 764 mmHg 76%
    10:00 +8°C° 0 mm 3 mps 764 mmHg 69%
    11:00 +10°C° 0 mm 4 mps 764 mmHg 63%
    12:00 +11°C° 0 mm 4 mps 763 mmHg 61%
    13:00 +12°C° 0 mm 4 mps 762 mmHg 60%
    14:00 +12°C° 0 mm 4 mps 762 mmHg 59%
    15:00 +12°C° 0 mm 4 mps 761 mmHg 63%
    16:00 +11°C° 0 mm 3 mps 761 mmHg 68%
    17:00 +11°C° 0 mm 3 mps 761 mmHg 72%
    18:00 +10°C° 0 mm 3 mps 761 mmHg 74%
    19:00 +9°C° 0 mm 3 mps 761 mmHg 75%
    20:00 +8°C° 0 mm 3 mps 761 mmHg 77%
    21:00 +8°C° 0 mm 3 mps 761 mmHg 77%
    22:00 +7°C° 0 mm 3 mps 761 mmHg 77%
    23:00 +7°C° 0 mm 3 mps 761 mmHg 77%
    Show more